| time (UTC) | temp C | wind direction | speed KPH | gust KPH | rain 1hr cm | rain 24hr cm | rain mn cm | humidity % | barometer mb |
| 20260906174026 | 23 | 144 | 9.7 | 19.3 | 0.00 | 0.00 | 0.00 | 78 | 1019.2 |
| 20260906173525 | 23 | 128 | 8.0 | 19.3 | 0.00 | 0.00 | 0.00 | 79 | 1019.2 |
| 20260906173027 | 23 | 129 | 9.7 | 17.7 | 0.00 | 0.00 | 0.00 | 78 | 1019.3 |
| 20260906172531 | 23 | 144 | 6.4 | 16.1 | 0.00 | 0.00 | 0.00 | 80 | 1019.4 |
| 20260906172033 | 23 | 146 | 8.0 | 16.1 | 0.00 | 0.00 | 0.00 | 80 | 1019.3 |
| 20260906171536 | 23 | 149 | 6.4 | 17.7 | 0.00 | 0.00 | 0.00 | 80 | 1019.3 |
| 20260906171036 | 23 | 134 | 9.7 | 17.7 | 0.00 | 0.00 | 0.00 | 81 | 1019.4 |
| 20260906170516 | 23 | 163 | 6.4 | 19.3 | 0.00 | 0.00 | 0.00 | 81 | 1019.6 |
| 20260906170039 | 23 | 156 | 9.7 | 16.1 | 0.00 | 0.00 | 0.00 | 81 | 1019.6 |
| 20260906165536 | 23 | 135 | 6.4 | 19.3 | 0.00 | 0.00 | 0.00 | 81 | 1019.6 |
| 20260906165035 | 23 | 141 | 11.3 | 19.3 | 0.00 | 0.00 | 0.00 | 81 | 1019.7 |
| 20260906164535 | 22 | 360 | 4.8 | 14.5 | 0.00 | 0.00 | 0.00 | 82 | 1019.7 |
| 20260906164101 | 22 | 136 | 11.3 | 14.5 | 0.00 | 0.00 | 0.00 | 82 | 1019.7 |
| 20260906163540 | 22 | 119 | 9.7 | 19.3 | 0.00 | 0.00 | 0.00 | 82 | 1019.8 |
| 20260906163045 | 22 | 165 | 9.7 | 17.7 | 0.00 | 0.00 | 0.00 | 81 | 1019.8 |
| 20260906162552 | 22 | 124 | 8.0 | 12.9 | 0.00 | 0.00 | 0.00 | 82 | 1019.9 |
| 20260906162059 | 22 | 138 | 6.4 | 12.9 | 0.00 | 0.00 | 0.00 | 82 | 1019.9 |
| 20260906161542 | 22 | 138 | 4.8 | 11.3 | 0.00 | 0.00 | 0.00 | 82 | 1019.8 |
| 20260906161047 | 22 | 119 | 4.8 | 12.9 | 0.00 | 0.00 | 0.00 | 82 | 1019.8 |
| 20260906160554 | 22 | 181 | 6.4 | 16.1 | 0.00 | 0.00 | 0.00 | 82 | 1019.9 |
| 20260906155540 | 22 | 150 | 3.2 | 11.3 | 0.00 | 0.00 | 0.00 | 83 | 1020.0 |
| 20260906155043 | 22 | 111 | 4.8 | 12.9 | 0.00 | 0.00 | 0.00 | 83 | 1020.1 |
| 20260906154539 | 22 | 182 | 6.4 | 14.5 | 0.00 | 0.00 | 0.00 | 84 | 1019.9 |
| 20260906154022 | 22 | 127 | 8.0 | 14.5 | 0.00 | 0.00 | 0.00 | 83 | 1019.9 |
| 20260906153522 | 22 | 219 | 9.7 | 17.7 | 0.00 | 0.00 | 0.00 | 83 | 1019.9 |
| 20260906153022 | 22 | 150 | 8.0 | 19.3 | 0.00 | 0.00 | 0.00 | 83 | 1019.9 |
| 20260906152523 | 22 | 126 | 11.3 | 20.9 | 0.00 | 0.00 | 0.00 | 83 | 1019.8 |
| 20260906152022 | 22 | 140 | 11.3 | 20.9 | 0.00 | 0.00 | 0.00 | 83 | 1019.9 |
| 20260906151522 | 22 | 171 | 11.3 | 19.3 | 0.00 | 0.00 | 0.00 | 84 | 1020.0 |
| 20260906151020 | 22 | 102 | 8.0 | 14.5 | 0.00 | 0.00 | 0.00 | 84 | 1020.2 |
| 20260906150520 | 22 | 360 | 4.8 | 19.3 | 0.00 | 0.00 | 0.00 | 84 | 1020.1 |
| 20260906150020 | 22 | 360 | 4.8 | 19.3 | 0.00 | 0.00 | 0.00 | 84 | 1020.0 |
| 20260906145520 | 22 | 360 | 9.7 | 20.9 | 0.00 | 0.00 | 0.00 | 84 | 1019.9 |
| 20260906145022 | 22 | 161 | 11.3 | 20.9 | 0.00 | 0.00 | 0.00 | 83 | 1020.0 |
| 20260906144523 | 22 | 136 | 9.7 | 19.3 | 0.00 | 0.00 | 0.00 | 83 | 1020.0 |
| 20260906144024 | 22 | 142 | 8.0 | 17.7 | 0.00 | 0.00 | 0.00 | 83 | 1019.9 |
| 20260906143524 | 22 | 185 | 9.7 | 17.7 | 0.00 | 0.00 | 0.00 | 82 | 1019.8 |
| 20260906143025 | 22 | 142 | 11.3 | 20.9 | 0.00 | 0.00 | 0.00 | 82 | 1019.8 |
| 20260906142526 | 22 | 360 | 6.4 | 20.9 | 0.00 | 0.00 | 0.00 | 83 | 1019.7 |
| 20260906142026 | 22 | 360 | 9.7 | 17.7 | 0.00 | 0.00 | 0.00 | 83 | 1019.6 |
| 20260906141526 | 22 | 360 | 8.0 | 14.5 | 0.00 | 0.00 | 0.00 | 83 | 1019.6 |
| 20260906141026 | 22 | 360 | 6.4 | 12.9 | 0.00 | 0.00 | 0.00 | 84 | 1019.7 |
| 20260906140524 | 22 | 360 | 4.8 | 17.7 | 0.00 | 0.00 | 0.00 | 85 | 1019.7 |
| 20260906140025 | 22 | 360 | 9.7 | 17.7 | 0.00 | 0.00 | 0.00 | 86 | 1019.6 |
| 20260906135527 | 22 | 360 | 6.4 | 14.5 | 0.00 | 0.00 | 0.00 | 87 | 1019.6 |
| 20260906135030 | 22 | 360 | 6.4 | 14.5 | 0.00 | 0.00 | 0.00 | 87 | 1019.7 |
| 20260906134533 | 21 | 360 | 4.8 | 12.9 | 0.00 | 0.00 | 0.00 | 87 | 1019.6 |
| 20260906134015 | 21 | 360 | 6.4 | 12.9 | 0.00 | 0.00 | 0.00 | 88 | 1019.5 |
| 20260906133516 | 21 | 360 | 6.4 | 12.9 | 0.00 | 0.00 | 0.00 | 89 | 1019.6 |
| 20260906133016 | 21 | 360 | 8.0 | 12.9 | 0.00 | 0.00 | 0.00 | 89 | 1019.6 |
| 20260906132532 | 21 | 360 | 3.2 | 9.7 | 0.00 | 0.00 | 0.00 | 90 | 1019.5 |
| 20260906132026 | 20 | 360 | 4.8 | 8.0 | 0.00 | 0.00 | 0.00 | 90 | 1019.4 |
| 20260906131522 | 20 | 360 | 4.8 | 9.7 | 0.00 | 0.00 | 0.00 | 90 | 1019.4 |
| 20260906131022 | 20 | 360 | 1.6 | 6.4 | 0.00 | 0.00 | 0.00 | 91 | 1019.3 |
| 20260906130519 | 20 | 360 | 3.2 | 8.0 | 0.00 | 0.00 | 0.00 | 91 | 1019.3 |
| 20260906130038 | 20 | 360 | 3.2 | 8.0 | 0.00 | 0.00 | 0.00 | 91 | 1019.2 |
| 20260906125527 | 20 | 160 | 3.2 | 6.4 | 0.00 | 0.00 | 0.00 | 91 | 1019.2 |
| 20260906125030 | 20 | 360 | 3.2 | 9.7 | 0.00 | 0.00 | 0.00 | 91 | 1019.1 |
| 20260906124532 | 20 | 133 | 1.6 | 9.7 | 0.00 | 0.00 | 0.00 | 91 | 1019.2 |
| 20260906124015 | 20 | 137 | 1.6 | 6.4 | 0.00 | 0.00 | 0.00 | 91 | 1019.2 |
| 20260906123517 | 20 | 128 | 1.6 | 8.0 | 0.00 | 0.00 | 0.00 | 91 | 1019.2 |
| 20260906123017 | 20 | 94 | 1.6 | 8.0 | 0.00 | 0.00 | 0.00 | 91 | 1019.1 |
| 20260906122538 | 20 | 114 | 1.6 | 4.8 | 0.00 | 0.00 | 0.00 | 91 | 1019.1 |
| 20260906122038 | 20 | 122 | 1.6 | 4.8 | 0.00 | 0.00 | 0.00 | 91 | 1019.1 |
| 20260906121540 | 20 | 139 | 1.6 | 3.2 | 0.00 | 0.00 | 0.00 | 91 | 1019.1 |
| 20260906121039 | 20 | 139 | 0.0 | 1.6 | 0.00 | 0.00 | 0.00 | 91 | 1019.1 |
| 20260906120537 | 20 | 139 | 0.0 | 1.6 | 0.00 | 0.00 | 0.00 | 90 | 1019.1 |
| 20260906120035 | 20 | 139 | 0.0 | 1.6 | 0.00 | 0.00 | 0.00 | 90 | 1019.1 |
| 20260906115532 | 20 | 139 | 0.0 | 1.6 | 0.00 | 0.00 | 0.00 | 90 | 1019.0 |
| 20260906115033 | 20 | 139 | 0.0 | 3.2 | 0.00 | 0.00 | 0.00 | 90 | 1019.0 |
| 20260906114534 | 20 | 139 | 0.0 | 3.2 | 0.00 | 0.00 | 0.00 | 90 | 1019.0 |
| 20260906114014 | 20 | 159 | 0.0 | 3.2 | 0.00 | 0.00 | 0.00 | 90 | 1019.0 |
| 20260906113515 | 20 | 159 | 1.6 | 3.2 | 0.00 | 0.00 | 0.00 | 90 | 1018.9 |
| 20260906113034 | 20 | 159 | 1.6 | 3.2 | 0.00 | 0.00 | 0.00 | 91 | 1018.9 |
| 20260906112529 | 20 | 161 | 1.6 | 4.8 | 0.00 | 0.00 | 0.00 | 91 | 1018.8 |
| 20260906112021 | 20 | 132 | 1.6 | 4.8 | 0.00 | 0.00 | 0.00 | 90 | 1018.8 |
| 20260906111522 | 20 | 138 | 3.2 | 4.8 | 0.00 | 0.00 | 0.00 | 90 | 1018.8 |
| 20260906111024 | 20 | 107 | 1.6 | 3.2 | 0.00 | 0.00 | 0.00 | 89 | 1018.7 |
| 20260906110526 | 20 | 101 | 0.0 | 3.2 | 0.00 | 0.00 | 0.00 | 89 | 1018.8 |
| 20260906110016 | 20 | 101 | 0.0 | 0.0 | 0.00 | 0.00 | 0.00 | 89 | 1018.7 |
| 20260906105517 | 20 | 101 | 0.0 | 0.0 | 0.00 | 0.00 | 0.00 | 89 | 1018.7 |
| 20260906105018 | 20 | 101 | 0.0 | 3.2 | 0.00 | 0.00 | 0.00 | 89 | 1018.7 |
| 20260906104518 | 20 | 101 | 0.0 | 4.8 | 0.00 | 0.00 | 0.00 | 89 | 1018.6 |
| 20260906104019 | 20 | 156 | 0.0 | 4.8 | 0.00 | 0.00 | 0.00 | 89 | 1018.5 |
| 20260906103518 | 20 | 116 | 3.2 | 4.8 | 0.00 | 0.00 | 0.00 | 89 | 1018.5 |
| 20260906103019 | 20 | 120 | 1.6 | 3.2 | 0.00 | 0.00 | 0.00 | 88 | 1018.6 |
| 20260906102518 | 20 | 360 | 0.0 | 1.6 | 0.00 | 0.00 | 0.00 | 86 | 1018.7 |
| 20260906102017 | 20 | 360 | 0.0 | 0.0 | 0.00 | 0.00 | 0.00 | 87 | 1018.6 |
| 20260906101536 | 20 | 360 | 0.0 | 1.6 | 0.00 | 0.00 | 0.00 | 87 | 1018.6 |
| 20260906101037 | 20 | 118 | 0.0 | 1.6 | 0.00 | 0.00 | 0.00 | 87 | 1018.6 |
| 20260906100531 | 20 | 118 | 0.0 | 1.6 | 0.00 | 0.00 | 0.00 | 87 | 1018.5 |
| 20260906100033 | 20 | 118 | 0.0 | 1.6 | 0.00 | 0.00 | 0.00 | 87 | 1018.4 |
| 20260906095518 | 20 | 118 | 0.0 | 3.2 | 0.00 | 0.00 | 0.00 | 87 | 1018.3 |
| 20260906095018 | 20 | 112 | 1.6 | 3.2 | 0.00 | 0.00 | 0.00 | 87 | 1018.3 |
| 20260906094518 | 21 | 124 | 0.0 | 3.2 | 0.00 | 0.00 | 0.00 | 87 | 1018.3 |
| 20260906094039 | 21 | 124 | 0.0 | 4.8 | 0.00 | 0.00 | 0.00 | 87 | 1018.3 |
| 20260906093515 | 21 | 124 | 0.0 | 3.2 | 0.00 | 0.00 | 0.00 | 87 | 1018.2 |
| 20260906093015 | 21 | 124 | 1.6 | 3.2 | 0.00 | 0.00 | 0.00 | 87 | 1018.1 |
| 20260906092535 | 21 | 121 | 0.0 | 3.2 | 0.00 | 0.00 | 0.00 | 87 | 1018.1 |
| 20260906092034 | 21 | 140 | 0.0 | 3.2 | 0.00 | 0.00 | 0.00 | 87 | 1018.0 |
| 20260906091516 | 21 | 140 | 0.0 | 3.2 | 0.00 | 0.00 | 0.00 | 87 | 1018.0 |
| 20260906091016 | 21 | 144 | 0.0 | 3.2 | 0.00 | 0.00 | 0.00 | 87 | 1017.9 |
| 20260906090518 | 21 | 138 | 1.6 | 3.2 | 0.00 | 0.00 | 0.00 | 86 | 1018.0 |
| 20260906090021 | 21 | 132 | 0.0 | 3.2 | 0.00 | 0.00 | 0.00 | 87 | 1018.0 |
| 20260906085522 | 21 | 123 | 0.0 | 3.2 | 0.00 | 0.00 | 0.00 | 86 | 1018.0 |
| 20260906085036 | 21 | 113 | 1.6 | 6.4 | 0.00 | 0.00 | 0.00 | 86 | 1017.9 |
| 20260906084536 | 21 | 129 | 0.0 | 6.4 | 0.00 | 0.00 | 0.00 | 86 | 1017.9 |
| 20260906084034 | 21 | 40 | 0.0 | 3.2 | 0.00 | 0.00 | 0.00 | 85 | 1017.9 |
| 20260906083529 | 21 | 360 | 1.6 | 3.2 | 0.00 | 0.00 | 0.00 | 85 | 1017.9 |
| 20260906083029 | 21 | 360 | 0.0 | 3.2 | 0.00 | 0.00 | 0.00 | 85 | 1017.8 |
| 20260906082529 | 21 | 360 | 0.0 | 3.2 | 0.00 | 0.00 | 0.00 | 85 | 1017.8 |
| 20260906082030 | 21 | 360 | 0.0 | 3.2 | 0.00 | 0.00 | 0.00 | 85 | 1017.7 |
| 20260906081531 | 21 | 360 | 0.0 | 4.8 | 0.00 | 0.00 | 0.00 | 85 | 1017.5 |
| 20260906081030 | 21 | 360 | 1.6 | 4.8 | 0.00 | 0.00 | 0.00 | 85 | 1017.5 |
| 20260906080530 | 21 | 360 | 1.6 | 3.2 | 0.00 | 0.00 | 0.00 | 84 | 1017.5 |
| 20260906080032 | 21 | 360 | 0.0 | 6.4 | 0.00 | 0.00 | 0.00 | 85 | 1017.5 |
| 20260906075533 | 22 | 95 | 3.2 | 6.4 | 0.00 | 0.00 | 0.00 | 85 | 1017.5 |
| 20260906075037 | 22 | 146 | 3.2 | 6.4 | 0.00 | 0.00 | 0.00 | 84 | 1017.5 |
| 20260906074539 | 22 | 360 | 1.6 | 6.4 | 0.00 | 0.00 | 0.00 | 84 | 1017.6 |
| 20260906074039 | 22 | 98 | 1.6 | 4.8 | 0.00 | 0.00 | 0.00 | 84 | 1017.6 |
| 20260906073545 | 22 | 360 | 1.6 | 4.8 | 0.00 | 0.00 | 0.00 | 84 | 1017.7 |
| 20260906073052 | 22 | 65 | 1.6 | 6.4 | 0.00 | 0.00 | 0.00 | 84 | 1017.8 |
| 20260906072552 | 22 | 90 | 1.6 | 4.8 | 0.00 | 0.00 | 0.00 | 84 | 1017.8 |
| 20260906072100 | 22 | 140 | 1.6 | 6.4 | 0.00 | 0.00 | 0.00 | 84 | 1017.8 |
| 20260906071538 | 22 | 146 | 3.2 | 6.4 | 0.00 | 0.00 | 0.00 | 84 | 1017.8 |
| 20260906071045 | 22 | 142 | 3.2 | 8.0 | 0.00 | 0.00 | 0.00 | 84 | 1017.9 |
| 20260906070551 | 22 | 116 | 3.2 | 4.8 | 0.00 | 0.00 | 0.00 | 83 | 1018.0 |
| 20260906070056 | 22 | 109 | 1.6 | 6.4 | 0.00 | 0.00 | 0.00 | 84 | 1018.1 |
| 20260906065537 | 22 | 126 | 3.2 | 6.4 | 0.00 | 0.00 | 0.00 | 84 | 1018.1 |
| 20260906065037 | 22 | 157 | 1.6 | 6.4 | 0.00 | 0.00 | 0.00 | 84 | 1018.1 |
| 20260906064518 | 22 | 143 | 1.6 | 6.4 | 0.00 | 0.00 | 0.00 | 85 | 1018.2 |
| 20260906064019 | 22 | 159 | 1.6 | 4.8 | 0.00 | 0.00 | 0.00 | 85 | 1018.2 |
| 20260906063521 | 22 | 113 | 1.6 | 6.4 | 0.00 | 0.00 | 0.00 | 85 | 1018.2 |
| 20260906063017 | 22 | 59 | 3.2 | 6.4 | 0.00 | 0.00 | 0.00 | 85 | 1018.2 |
| 20260906062520 | 22 | 71 | 1.6 | 3.2 | 0.00 | 0.00 | 0.00 | 84 | 1018.1 |
| 20260906062023 | 22 | 123 | 0.0 | 3.2 | 0.00 | 0.00 | 0.00 | 84 | 1018.1 |
| 20260906061522 | 22 | 134 | 1.6 | 6.4 | 0.00 | 0.00 | 0.00 | 84 | 1018.1 |
| 20260906061019 | 22 | 130 | 3.2 | 6.4 | 0.00 | 0.00 | 0.00 | 84 | 1018.1 |
| 20260906060521 | 22 | 150 | 1.6 | 6.4 | 0.00 | 0.00 | 0.00 | 84 | 1018.1 |
| 20260906060021 | 22 | 111 | 1.6 | 4.8 | 0.00 | 0.00 | 0.00 | 84 | 1018.1 |
| 20260906055523 | 22 | 95 | 0.0 | 3.2 | 0.00 | 0.00 | 0.00 | 83 | 1018.2 |
| 20260906055022 | 22 | 91 | 0.0 | 3.2 | 0.00 | 0.00 | 0.00 | 83 | 1018.2 |
| 20260906054521 | 22 | 120 | 0.0 | 4.8 | 0.00 | 0.00 | 0.00 | 83 | 1018.1 |
| 20260906054025 | 22 | 142 | 1.6 | 4.8 | 0.00 | 0.00 | 0.00 | 83 | 1018.1 |
| 20260906053529 | 22 | 137 | 1.6 | 4.8 | 0.00 | 0.00 | 0.00 | 83 | 1018.1 |
| 20260906053028 | 22 | 144 | 3.2 | 4.8 | 0.00 | 0.00 | 0.00 | 83 | 1018.1 |
| 20260906052526 | 22 | 137 | 1.6 | 6.4 | 0.00 | 0.00 | 0.00 | 83 | 1018.1 |
| 20260906052027 | 22 | 109 | 1.6 | 6.4 | 0.00 | 0.00 | 0.00 | 83 | 1018.1 |
| 20260906051530 | 22 | 118 | 1.6 | 4.8 | 0.00 | 0.00 | 0.00 | 83 | 1018.2 |
| 20260906051029 | 22 | 130 | 1.6 | 6.4 | 0.00 | 0.00 | 0.00 | 83 | 1018.2 |
| 20260906050529 | 22 | 136 | 3.2 | 6.4 | 0.00 | 0.00 | 0.00 | 83 | 1018.3 |
| 20260906050029 | 22 | 111 | 1.6 | 4.8 | 0.00 | 0.00 | 0.00 | 83 | 1018.3 |
| 20260906045521 | 22 | 129 | 0.0 | 0.0 | 0.00 | 0.00 | 0.00 | 83 | 1018.5 |
| 20260906045023 | 22 | 107 | 0.0 | 0.0 | 0.00 | 0.00 | 0.00 | 83 | 1018.5 |
| 20260906044525 | 22 | 148 | 0.0 | 0.0 | 0.00 | 0.00 | 0.00 | 82 | 1018.5 |
| 20260906044029 | 22 | 148 | 0.0 | 0.0 | 0.00 | 0.00 | 0.00 | 83 | 1018.5 |
| 20260906043531 | 22 | 148 | 0.0 | 0.0 | 0.00 | 0.00 | 0.00 | 82 | 1018.4 |
| 20260906043014 | 22 | 115 | 0.0 | 3.2 | 0.00 | 0.00 | 0.00 | 82 | 1018.5 |
| 20260906042534 | 22 | 69 | 0.0 | 4.8 | 0.00 | 0.00 | 0.00 | 82 | 1018.5 |
| 20260906042033 | 22 | 113 | 1.6 | 4.8 | 0.00 | 0.00 | 0.00 | 82 | 1018.5 |
| 20260906041533 | 22 | 127 | 0.0 | 1.6 | 0.00 | 0.00 | 0.00 | 82 | 1018.5 |
| 20260906041035 | 23 | 126 | 0.0 | 1.6 | 0.00 | 0.00 | 0.00 | 82 | 1018.5 |
| 20260906040538 | 23 | 110 | 0.0 | 0.0 | 0.00 | 0.00 | 0.00 | 82 | 1018.5 |
| 20260906040037 | 23 | 110 | 0.0 | 0.0 | 0.00 | 0.00 | 0.00 | 82 | 1018.5 |
| 20260906035515 | 23 | 110 | 0.0 | 0.0 | 0.00 | 0.00 | 0.00 | 82 | 1018.5 |
| 20260906035017 | 23 | 110 | 0.0 | 1.6 | 0.00 | 0.00 | 0.00 | 82 | 1018.6 |
| 20260906034518 | 23 | 110 | 0.0 | 1.6 | 0.00 | 0.00 | 0.00 | 81 | 1018.5 |
| 20260906034019 | 23 | 123 | 0.0 | 3.2 | 0.00 | 0.00 | 0.00 | 81 | 1018.5 |
| 20260906033522 | 23 | 103 | 0.0 | 3.2 | 0.00 | 0.00 | 0.00 | 81 | 1018.5 |
| 20260906033021 | 23 | 360 | 0.0 | 1.6 | 0.00 | 0.00 | 0.00 | 81 | 1018.5 |
| 20260906032523 | 23 | 360 | 0.0 | 3.2 | 0.00 | 0.00 | 0.00 | 80 | 1018.5 |
| 20260906032023 | 23 | 360 | 1.6 | 3.2 | 0.00 | 0.00 | 0.00 | 80 | 1018.4 |
| 20260906031523 | 23 | 360 | 1.6 | 4.8 | 0.00 | 0.00 | 0.00 | 80 | 1018.5 |
| 20260906031021 | 23 | 360 | 1.6 | 4.8 | 0.00 | 0.00 | 0.00 | 80 | 1018.4 |
| 20260906030523 | 23 | 122 | 1.6 | 4.8 | 0.00 | 0.00 | 0.00 | 79 | 1018.5 |
| 20260906030021 | 23 | 360 | 3.2 | 4.8 | 0.00 | 0.00 | 0.00 | 79 | 1018.5 |
| 20260906025521 | 23 | 360 | 1.6 | 6.4 | 0.00 | 0.00 | 0.00 | 79 | 1018.5 |
| 20260906025023 | 23 | 360 | 1.6 | 6.4 | 0.00 | 0.00 | 0.00 | 79 | 1018.4 |
| 20260906024521 | 23 | 360 | 3.2 | 4.8 | 0.00 | 0.00 | 0.00 | 79 | 1018.5 |
| 20260906024043 | 23 | 360 | 3.2 | 4.8 | 0.00 | 0.00 | 0.00 | 79 | 1018.6 |
| 20260906023543 | 23 | 360 | 1.6 | 4.8 | 0.00 | 0.00 | 0.00 | 79 | 1018.7 |
| 20260906023049 | 24 | 360 | 0.0 | 4.8 | 0.00 | 0.00 | 0.00 | 79 | 1018.6 |
| 20260906022557 | 24 | 360 | 3.2 | 6.4 | 0.00 | 0.00 | 0.00 | 79 | 1018.6 |
| 20260906022100 | 24 | 360 | 3.2 | 6.4 | 0.00 | 0.00 | 0.00 | 79 | 1018.4 |
| 20260906021540 | 24 | 360 | 1.6 | 6.4 | 0.00 | 0.00 | 0.00 | 79 | 1018.2 |
| 20260906021044 | 24 | 360 | 1.6 | 6.4 | 0.00 | 0.00 | 0.00 | 79 | 1018.2 |
| 20260906020551 | 24 | 360 | 1.6 | 8.0 | 0.00 | 0.00 | 0.00 | 79 | 1018.2 |
| 20260906020100 | 24 | 360 | 1.6 | 8.0 | 0.00 | 0.00 | 0.00 | 78 | 1017.9 |
| 20260906015541 | 24 | 360 | 3.2 | 8.0 | 0.00 | 0.00 | 0.00 | 78 | 1017.6 |
| 20260906015039 | 24 | 163 | 4.8 | 12.9 | 0.00 | 0.00 | 0.00 | 78 | 1017.4 |
| 20260906014539 | 24 | 160 | 4.8 | 9.7 | 0.00 | 0.00 | 0.00 | 77 | 1017.3 |
| 20260906014016 | 24 | 149 | 4.8 | 12.9 | 0.00 | 0.00 | 0.00 | 77 | 1017.3 |
| 20260906013520 | 25 | 172 | 6.4 | 12.9 | 0.00 | 0.00 | 0.00 | 76 | 1017.1 |
| 20260906013023 | 25 | 173 | 4.8 | 14.5 | 0.00 | 0.00 | 0.00 | 76 | 1016.9 |
| 20260906012525 | 25 | 184 | 4.8 | 11.3 | 0.00 | 0.00 | 0.00 | 75 | 1016.9 |
| 20260906012028 | 25 | 142 | 4.8 | 11.3 | 0.00 | 0.00 | 0.00 | 75 | 1016.7 |
| 20260906011527 | 25 | 166 | 4.8 | 12.9 | 0.00 | 0.00 | 0.00 | 74 | 1016.6 |
| 20260906011029 | 25 | 163 | 4.8 | 14.5 | 0.00 | 0.00 | 0.00 | 74 | 1016.5 |
| 20260906010530 | 25 | 144 | 6.4 | 14.5 | 0.00 | 0.00 | 0.00 | 74 | 1016.6 |
| 20260906010031 | 25 | 137 | 8.0 | 14.5 | 0.00 | 0.00 | 0.00 | 73 | 1016.5 |
| 20260906005532 | 25 | 149 | 9.7 | 17.7 | 0.00 | 0.00 | 0.00 | 73 | 1016.4 |
| 20260906005034 | 25 | 140 | 8.0 | 17.7 | 0.00 | 0.00 | 0.00 | 72 | 1016.2 |
| 20260906004531 | 26 | 200 | 6.4 | 16.1 | 0.00 | 0.00 | 0.00 | 72 | 1016.3 |
| 20260906004031 | 26 | 169 | 4.8 | 11.3 | 0.00 | 0.00 | 0.00 | 71 | 1016.3 |
| 20260906003532 | 26 | 132 | 6.4 | 11.3 | 0.00 | 0.00 | 0.00 | 71 | 1016.2 |
| 20260906003035 | 26 | 157 | 6.4 | 12.9 | 0.00 | 0.00 | 0.00 | 70 | 1016.2 |
| 20260906002537 | 26 | 360 | 6.4 | 12.9 | 0.00 | 0.00 | 0.00 | 70 | 1016.2 |
| 20260906002033 | 26 | 157 | 6.4 | 12.9 | 0.00 | 0.00 | 0.00 | 69 | 1016.2 |
| 20260906001516 | 26 | 186 | 8.0 | 14.5 | 0.00 | 0.00 | 0.00 | 69 | 1016.1 |
| 20260906001018 | 27 | 155 | 4.8 | 14.5 | 0.00 | 0.00 | 0.00 | 68 | 1016.0 |
| 20260906000515 | 27 | 151 | 4.8 | 14.5 | 0.00 | 0.00 | 0.00 | 67 | 1016.0 |
| 20260906000017 | 27 | 169 | 6.4 | 14.5 | 0.00 | 0.00 | 0.00 | 67 | 1015.9 |
| 20260905235517 | 27 | 178 | 4.8 | 11.3 | 0.00 | 0.00 | 0.00 | 66 | 1016.0 |
| 20260905235017 | 27 | 119 | 6.4 | 11.3 | 0.00 | 0.00 | 0.00 | 64 | 1015.9 |
| 20260905234521 | 27 | 114 | 3.2 | 12.9 | 0.00 | 0.00 | 0.00 | 64 | 1015.9 |
| 20260905234017 | 27 | 142 | 6.4 | 11.3 | 0.00 | 0.00 | 0.00 | 64 | 1016.0 |
| 20260905233517 | 28 | 136 | 6.4 | 14.5 | 0.00 | 0.00 | 0.00 | 63 | 1016.0 |
| 20260905233018 | 28 | 153 | 4.8 | 14.5 | 0.00 | 0.00 | 0.00 | 64 | 1015.9 |
| 20260905232520 | 28 | 138 | 6.4 | 14.5 | 0.00 | 0.00 | 0.00 | 62 | 1015.9 |
| 20260905232022 | 28 | 130 | 4.8 | 12.9 | 0.00 | 0.00 | 0.00 | 63 | 1015.8 |
| 20260905231521 | 28 | 157 | 4.8 | 14.5 | 0.00 | 0.00 | 0.00 | 64 | 1015.8 |
| 20260905231020 | 28 | 142 | 6.4 | 14.5 | 0.00 | 0.00 | 0.00 | 63 | 1015.7 |
| 20260905230521 | 28 | 143 | 8.0 | 16.1 | 0.00 | 0.00 | 0.00 | 64 | 1015.6 |
| 20260905230024 | 28 | 142 | 11.3 | 17.7 | 0.00 | 0.00 | 0.00 | 64 | 1015.6 |
| 20260905225524 | 28 | 115 | 8.0 | 17.7 | 0.00 | 0.00 | 0.00 | 64 | 1015.5 |
| 20260905225028 | 28 | 121 | 6.4 | 14.5 | 0.00 | 0.00 | 0.00 | 65 | 1015.4 |
| 20260905224529 | 28 | 138 | 4.8 | 11.3 | 0.00 | 0.00 | 0.00 | 65 | 1015.4 |
| 20260905224029 | 28 | 123 | 6.4 | 14.5 | 0.00 | 0.00 | 0.00 | 65 | 1015.3 |
| 20260905223530 | 28 | 142 | 6.4 | 14.5 | 0.00 | 0.00 | 0.00 | 65 | 1015.2 |
| 20260905223029 | 28 | 158 | 8.0 | 19.3 | 0.00 | 0.00 | 0.00 | 64 | 1015.1 |
| 20260905222529 | 28 | 152 | 8.0 | 19.3 | 0.00 | 0.00 | 0.00 | 64 | 1015.1 |
| 20260905222022 | 28 | 173 | 6.4 | 16.1 | 0.00 | 0.00 | 0.00 | 64 | 1015.2 |
| 20260905221522 | 29 | 138 | 6.4 | 14.5 | 0.00 | 0.00 | 0.00 | 63 | 1015.1 |
| 20260905221024 | 29 | 167 | 8.0 | 14.5 | 0.00 | 0.00 | 0.00 | 62 | 1015.1 |
| 20260905220528 | 29 | 123 | 4.8 | 12.9 | 0.00 | 0.00 | 0.00 | 62 | 1015.2 |
| 20260905220024 | 29 | 115 | 4.8 | 11.3 | 0.00 | 0.00 | 0.00 | 64 | 1015.3 |
| 20260905215524 | 29 | 144 | 4.8 | 11.3 | 0.00 | 0.00 | 0.00 | 61 | 1015.4 |
| 20260905215026 | 29 | 121 | 4.8 | 12.9 | 0.00 | 0.00 | 0.00 | 62 | 1015.4 |
| 20260905214529 | 29 | 144 | 6.4 | 12.9 | 0.00 | 0.00 | 0.00 | 62 | 1015.5 |
| 20260905214032 | 29 | 82 | 4.8 | 11.3 | 0.00 | 0.00 | 0.00 | 60 | 1015.5 |
| 20260905213529 | 29 | 91 | 4.8 | 11.3 | 0.00 | 0.00 | 0.00 | 62 | 1015.8 |
| 20260905213029 | 29 | 150 | 8.0 | 12.9 | 0.00 | 0.00 | 0.00 | 61 | 1015.7 |
| 20260905212531 | 29 | 127 | 3.2 | 14.5 | 0.00 | 0.00 | 0.00 | 61 | 1015.8 |
| 20260905212030 | 29 | 151 | 3.2 | 16.1 | 0.00 | 0.00 | 0.00 | 62 | 1015.9 |
| 20260905211529 | 28 | 121 | 8.0 | 16.1 | 0.00 | 0.00 | 0.00 | 61 | 1016.0 |
| 20260905211027 | 28 | 157 | 6.4 | 14.5 | 0.00 | 0.00 | 0.00 | 62 | 1016.0 |
| 20260905210529 | 28 | 138 | 6.4 | 14.5 | 0.00 | 0.00 | 0.00 | 63 | 1016.0 |
| 20260905210031 | 28 | 72 | 4.8 | 14.5 | 0.00 | 0.00 | 0.00 | 63 | 1016.0 |
| 20260905205532 | 28 | 28 | 4.8 | 16.1 | 0.00 | 0.00 | 0.00 | 64 | 1016.0 |
| 20260905205014 | 28 | 32 | 6.4 | 16.1 | 0.00 | 0.00 | 0.00 | 62 | 1015.9 |
| 20260905204543 | 28 | 206 | 3.2 | 12.9 | 0.00 | 0.00 | 0.00 | 63 | 1015.9 |
| 20260905204037 | 28 | 72 | 4.8 | 24.1 | 0.00 | 0.00 | 0.00 | 66 | 1015.9 |
| 20260905203604 | 28 | 79 | 9.7 | 24.1 | 0.00 | 0.00 | 0.00 | 65 | 1016.0 |
| 20260905203101 | 28 | 55 | 6.4 | 16.1 | 0.00 | 0.00 | 0.00 | 67 | 1016.0 |
| 20260905202537 | 27 | 111 | 6.4 | 16.1 | 0.00 | 0.00 | 0.00 | 68 | 1016.2 |
| 20260905202044 | 27 | 143 | 4.8 | 14.5 | 0.00 | 0.00 | 0.00 | 68 | 1016.2 |
| 20260905201553 | 27 | 96 | 4.8 | 20.9 | 0.00 | 0.00 | 0.00 | 70 | 1016.4 |
| 20260905201035 | 27 | 329 | 4.8 | 12.9 | 0.00 | 0.00 | 0.00 | 71 | 1016.7 |
| 20260905200559 | 27 | 81 | 6.4 | 12.9 | 0.00 | 0.00 | 0.00 | 69 | 1016.8 |
| 20260905200057 | 27 | 128 | 4.8 | 12.9 | 0.00 | 0.00 | 0.00 | 70 | 1016.9 |
| 20260905195537 | 27 | 108 | 3.2 | 9.7 | 0.00 | 0.00 | 0.00 | 71 | 1016.9 |
| 20260905195045 | 27 | 305 | 3.2 | 12.9 | 0.00 | 0.00 | 0.00 | 72 | 1016.9 |
| 20260905194551 | 26 | 332 | 4.8 | 16.1 | 0.00 | 0.00 | 0.00 | 73 | 1016.9 |
| 20260905194059 | 26 | 59 | 4.8 | 16.1 | 0.00 | 0.00 | 0.00 | 74 | 1017.0 |
| 20260905193539 | 26 | 67 | 4.8 | 11.3 | 0.00 | 0.00 | 0.00 | 74 | 1017.1 |
| 20260905193048 | 26 | 85 | 4.8 | 12.9 | 0.00 | 0.00 | 0.00 | 75 | 1017.0 |
| 20260905192546 | 26 | 66 | 4.8 | 11.3 | 0.00 | 0.00 | 0.00 | 76 | 1017.3 |
| 20260905192052 | 26 | 44 | 3.2 | 12.9 | 0.00 | 0.00 | 0.00 | 76 | 1017.4 |
| 20260905191559 | 25 | 98 | 4.8 | 12.9 | 0.00 | 0.00 | 0.00 | 76 | 1017.5 |
| 20260905191039 | 25 | 121 | 4.8 | 9.7 | 0.00 | 0.00 | 0.00 | 77 | 1017.5 |
| 20260905190547 | 25 | 104 | 3.2 | 8.0 | 0.00 | 0.00 | 0.00 | 77 | 1017.5 |
| 20260905190052 | 25 | 49 | 1.6 | 6.4 | 0.00 | 0.00 | 0.00 | 77 | 1017.6 |
| 20260905185551 | 25 | 69 | 1.6 | 8.0 | 0.00 | 0.00 | 0.00 | 78 | 1017.8 |
| 20260905185051 | 25 | 331 | 3.2 | 8.0 | 0.00 | 0.00 | 0.00 | 77 | 1017.9 |
| 20260905184547 | 25 | 67 | 1.6 | 6.4 | 0.00 | 0.00 | 0.00 | 78 | 1017.9 |
| 20260905184055 | 25 | 133 | 3.2 | 9.7 | 0.00 | 0.00 | 0.00 | 78 | 1017.7 |
| 20260905183549 | 25 | 162 | 4.8 | 9.7 | 0.00 | 0.00 | 0.00 | 76 | 1017.8 |
| 20260905183057 | 25 | 142 | 4.8 | 8.0 | 0.00 | 0.00 | 0.00 | 78 | 1017.9 |
| 20260905182537 | 25 | 355 | 1.6 | 8.0 | 0.00 | 0.00 | 0.00 | 79 | 1018.0 |
| 20260905182037 | 25 | 189 | 4.8 | 8.0 | 0.00 | 0.00 | 0.00 | 77 | 1017.9 |
| 20260905181543 | 25 | 124 | 0.0 | 9.7 | 0.00 | 0.00 | 0.00 | 79 | 1018.1 |
| 20260905181053 | 25 | 97 | 6.4 | 11.3 | 0.00 | 0.00 | 0.00 | 78 | 1018.0 |
| 20260905180600 | 25 | 113 | 3.2 | 11.3 | 0.00 | 0.00 | 0.00 | 78 | 1018.0 |
| 20260905180054 | 25 | 118 | 3.2 | 6.4 | 0.00 | 0.00 | 0.00 | 80 | 1018.0 |
| 20260905175556 | 24 | 154 | 4.8 | 8.0 | 0.00 | 0.00 | 0.00 | 81 | 1018.1 |
| 20260905175035 | 25 | 360 | 4.8 | 8.0 | 0.00 | 0.00 | 0.00 | 79 | 1018.2 |
| 20260905174542 | 24 | 175 | 3.2 | 11.3 | 0.00 | 0.00 | 0.00 | 81 | 1018.2 |